El Paso International Airport
KELP : rendu visible

Aérodrome :











RETROUVEZ-NOUS SUR...

 
LOGIN :

S'inscrire | Disclaimer

   EN    FR    IT 

 









Légende :    VFR   VFR Marginal   IFR   IFR Intensif   IFR Très Intensif
Visi : 
Plafond : 
>= 8 km
>= 3000ft
5 à 8 km
1000 à 3000 ft
1500m à 5 km
500 à 1000 ft
800 à 1500m
200 à 500 ft
< 800m
< 200 ft
Symboles :   Orages  Brouillard  Fortes neiges  Fortes précipitations  Vent > 20 kt






- Altitude de l'aérodrome : 3959 ft
- Code IATA : ELP


KELP - El Paso International

DERNIER METAR :
  • 021551Z 26011KT 10SM FEW150 FEW250 20/M01 A2996 RMK AO2 SLP084 T02001006

METARs EXPIRÉS :
  • 021451Z 24006KT 10SM FEW090 FEW250 19/M01 A2996 RMK AO2 SLP084 T01891006 51017
  • 021351Z 23009KT 10SM FEW120 18/M01 A2994 RMK AO2 SLP077 T01781011

TAF KELP
Valide du 02 à 12h jusqu'au 03 à 12h UTC


021127Z 0212/0312 26013KT P6SM SCT100
FM022000 26020G30KT P6SM SKC
FM030400 26015KT P6SM SKC



MET'MAP, la Météo Aéronautique d'un coup d'oeil ! - Copyright ORBIFLY Décembre 2007 - Disclaimer

ORBIFLY MET'MAP TEAM :

Programmation & Développement : Alexandra Zaïnal
Sur une idée originale de : Baudouin d'Aumeries
Assistance à la programmation : Marc-Olivier Méhu
Soutien technique & logistique : Manuel Goepfert

Contact : metmap@orbifly.com




SOURCES & CREDITS :

   NOAA       Earth
Advisory